SCP
0 0 0 0 0 0 0 0 0 0 0 0 0 0 0 0 0 0 0 1 1 1 1 1 1 0 0 0 0 0 0 0 0 0 0 0 0 0 0 0 0 0 0
0 0 0 0 0 0 0 0 0 0 0 0 0 0 0 0 0 0 0 0 0 1 1 1 1 1 1 1 1 0 0 0 0 0 0 0 0 0 0 0 0 0 0
0 0 0 0 0 0 0 0 0 0 0 0 0 0 0 0 0 0 0 0 0 0 0 1 1 1 1 1 1 1 1 0 0 0 0 0 0 0 0 0 0 0 0
0 0 0 0 0 0 0 0 0 0 0 0 0 0 0 0 0 0 0 0 0 0 0 0 0 0 0 1 1 1 1 0 0 0 0 0 0 0 0 0 0 0 0
0 0 0 0 0 0 0 0 0 0 0 0 0 0 0 0 0 0 0 0 0 0 0 0 0 0 0 0 0 0 0 0 0 0 0 0 0 0 0 0 0 0 0
0 0 0 0 0 0 0 0 0 0 0 0 0 0 0 0 0 0 0 0 0 0 0 0 0 0 0 0 0 0 0 0 0 0 0 0 0 0 0 0 0 0 0
0 0 0 0 0 0 0 0 0 0 0 0 0 0 0 0 0 0 0 0 0 0 0 0 0 0 0 0 0 0 0 0 0 0 0 0 0 0 0 0 0 0 0
0 1 0 0 0 0 0 0 0 0 1 0 0 0 0 0 0 0 0 0 0 0 0 1 1 1 1 0 0 0 0 0 0 0 0 0 0 0 0 0 0 0 0
0 0 0 0 0 0 0 0 0 0 0 0 0 0 0 0 0 0 0 0 0 0 0 1 1 1 1 1 1 1 0 0 0 0 0 0 0 0 0 0 0 0 0
0 0 0 0 0 0 0 0 0 0 0 0 0 0 0 0 0 0 0 0 0 0 0 0 1 1 1 1 1 1 1 0 0 0 0 0 0 0 0 0 0 0 0
0 0 0 0 0 0 0 0 0 0 0 0 0 0 0 0 0 0 0 0 0 0 0 0 0 0 1 1 1 1 0 0 0 0 0 0 0 0 0 0 0 0 0
0 1 1 1 0 0 0 0 0 0 0 0 0 0 0 0 0 0 0 0 0 0 0 0 0 0 0 0 0 0 0 0 0 0 0 0 0 0 0 0 0 0 0
0 1 1 1 1 0 0 0 0 0 0 0 0 0 0 0 0 0 0 0 0 0 0 0 0 0 0 0 0 0 0 0 0 0 0 0 0 0 0 0 0 0 0
0 0 1 1 1 1 1 0 0 0 0 0 0 0 0 0 0 0 0 0 0 0 0 0 0 0 0 0 0 0 0 0 0 0 0 0 1 1 1 1 1 1 0
0 0 0 0 1 1 1 1 0 0 0 0 0 0 0 0 0 0 0 0 0 0 0 0 0 0 0 0 0 0 0 0 0 0 0 0 0 1 1 1 1 1 1
0 0 0 0 0 1 1 1 0 0 0 0 0 0 0 0 0 0 0 0 0 0 0 0 0 0 0 0 0 0 0 0 0 0 0 0 0 0 1 1 1 1 1
0 0 0 0 0 0 1 1 1 0 0 0 0 0 0 0 0 0 0 0 0 0 0 0 0 0 0 0 0 0 0 0 0 0 0 0 0 0 0 0 1 1 1
0 0 0 0 0 0 1 1 1 0 0 0 0 0 0 0 0 0 0 0 0 0 0 0 0 0 0 0 0 0 0 0 0 0 0 0 0 0 0 0 0 1 1
0 0 0 0 0 0 0 0 0 0 0 0 0 0 0 0 0 0 0 0 0 0 0 0 0 0 0 0 0 0 0 0 0 0 0 0 0 0 0 0 0 0 1
0 0 0 0 0 0 0 0 0 0 0 0 0 0 0 0 0 0 0 0 0 0 0 0 0 0 0 0 0 0 0 0 0 0 0 0 0 0 0 0 0 0 0
0 0 0 0 0 0 0 0 0 0 0 0 0 0 0 0 0 0 0 0 0 0 0 0 0 0 0 0 0 0 0 0 0 0 0 0 0 0 0 0 0 0 0
0 0 0 0 0 0 0 0 0 0 0 0 0 0 0 0 0 0 0 0 0 0 0 0 0 0 0 0 0 0 0 0 0 0 0 0 0 0 0 0 0 0 0
0 0 0 0 0 0 0 0 0 0 0 0 0 0 0 0 0 0 0 0 0 0 0 0 0 0 0 0 0 0 0 0 0 0 0 0 0 0 0 0 0 0 0
0 0 0 0 0 0 0 0 0 0 0 0 0 0 0 0 0 0 0 0 0 0 0 0 0 0 0 0 0 0 0 0 0 0 0 0 0 0 0 0 0 0 0
0 0 0 0 0 0 0 0 0 0 0 0 0 0 0 0 0 0 0 0 0 0 0 0 0 0 0 0 0 0 0 0 0 0 0 0 0 0 0 0 0 0 0
0 0 0 0 0 0 0 0 0 0 0 0 0 0 0 0 0 0 0 0 0 0 0 0 0 0 0 0 0 0 0 0 0 0 0 0 0 0 0 0 0 0 0
Wind_Speed
2 2 2 3 5 8 9 9 10 10 10 10 10 11 11 11 12 11 11 10 10 11 11 11 11 11 11 11 11 11 11 11 11 10 9 9 9 9 9 9 8 5 9
0 1 2 3 6 8 9 9 10 10 10 10 10 11 11 11 11 11 11 10 10 11 11 11 11 11 10 10 10 10 10 10 10 10 9 8 8 9 9 8 8 5 8
3 2 3 4 6 8 8 9 9 9 10 10 10 11 11 10 11 10 10 10 10 10 10 10 10 10 10 10 9 9 10 10 10 9 9 5 4 7 8 8 7 7 7
4 3 3 5 7 8 8 9 9 9 9 9 10 10 10 10 10 10 10 10 10 10 9 10 10 10 9 9 9 9 9 9 9 8 5 4 3 5 7 8 8 8 8
5 4 4 6 8 8 8 9 9 8 9 9 10 10 10 10 9 9 9 9 9 9 9 9 9 9 9 9 9 9 9 9 9 7 4 3 3 5 7 7 8 8 7
5 5 5 8 9 9 9 9 9 9 8 8 9 9 9 9 9 9 9 9 9 9 9 9 8 8 8 8 9 9 9 9 7 4 3 3 3 5 6 7 7 8 8
6 5 5 8 9 9 9 9 9 9 9 9 9 8 8 9 9 9 9 9 9 9 8 8 8 8 8 8 8 9 9 8 5 3 3 3 3 6 6 6 7 7 7
6 6 6 9 10 9 9 9 9 9 9 9 9 9 9 9 9 9 9 9 8 9 9 8 9 9 9 8 8 8 9 8 6 4 3 3 5 6 6 6 6 6 7
6 6 5 5 6 8 9 10 10 11 11 10 10 10 10 10 9 9 9 8 8 8 8 8 8 8 8 9 9 9 9 9 5 3 4 3 6 6 7 6 6 6 6
6 6 5 5 5 5 6 10 11 12 12 11 11 11 10 10 10 10 9 10 9 9 8 8 8 7 7 8 8 9 8 7 4 4 3 4 7 6 7 7 6 6 6
5 5 4 5 5 5 5 8 9 10 11 10 9 10 8 5 6 6 9 11 11 11 10 9 9 8 7 7 8 8 7 3 3 3 3 6 7 7 7 7 7 7 7
3 3 3 4 4 4 4 4 4 5 6 6 6 6 5 4 5 6 9 11 11 11 10 10 9 8 6 4 5 6 3 4 3 3 4 9 8 8 8 8 7 6 6
2 2 3 3 3 4 3 3 3 3 3 5 6 6 5 4 4 4 4 5 6 8 6 7 6 4 4 3 3 3 3 3 2 3 5 10 9 8 8 9 8 7 7
3 2 2 2 3 3 3 3 3 2 2 3 4 5 4 3 4 3 3 4 4 3 4 4 3 4 5 4 4 4 4 3 3 3 5 10 10 9 9 9 9 8 8
2 2 2 2 2 2 3 2 3 2 2 3 3 4 4 3 3 3 3 3 4 3 3 4 4 4 4 4 4 4 4 4 4 3 3 9 10 10 10 10 10 10 10
1 1 2 2 2 2 3 2 2 2 2 2 3 3 4 3 3 3 3 3 3 3 3 3 4 3 3 3 3 3 3 3 3 3 3 5 10 11 11 11 11 11 11
0 1 1 1 2 2 3 3 2 2 2 2 2 3 4 4 3 3 3 3 3 3 3 3 4 3 3 3 4 3 3 3 3 3 4 3 5 9 11 12 12 12 12
1 1 1 1 2 2 2 2 2 2 2 2 2 2 4 4 3 3 3 3 3 3 3 3 3 3 3 3 3 3 2 2 3 3 3 4 4 5 8 12 13 12 13
2 1 1 1 2 2 3 3 3 3 3 2 2 3 3 4 3 3 2 3 3 3 3 3 3 2 3 3 2 2 2 2 2 3 3 4 4 5 5 9 12 13 13
2 2 1 1 1 2 2 2 2 3 2 2 2 3 3 3 3 3 2 3 3 3 3 3 3 3 2 2 2 2 2 2 2 2 3 3 4 5 5 6 5 8 12
1 2 2 2 1 2 2 1 1 1 1 1 2 3 3 3 3 3 3 3 3 3 3 3 2 3 3 3 2 2 2 2 2 2 2 2 4 4 4 5 4 4 5
1 1 2 2 2 2 2 2 1 1 0 1 2 2 3 3 3 3 3 2 2 2 3 3 3 2 2 3 2 1 2 2 2 2 2 2 3 3 4 5 4 4 4
1 2 2 2 2 2 2 2 2 2 1 1 2 2 3 3 3 3 3 3 2 2 2 2 2 2 1 2 3 2 1 2 3 2 2 2 3 2 2 3 4 4 4
2 1 1 1 1 2 2 3 3 2 1 1 1 1 2 3 3 3 3 3 3 2 2 2 3 2 1 1 2 2 1 0 1 3 2 2 2 2 2 3 3 4 4
2 1 1 1 1 2 2 3 3 2 1 1 1 1 2 2 2 3 3 3 3 2 3 2 2 2 2 1 1 1 1 1 0 1 3 3 3 2 2 2 2 3 4
1 1 1 1 1 2 2 2 3 3 2 1 1 1 1 1 2 3 3 3 2 2 2 2 2 2 2 2 1 1 1 1 1 1 3 4 4 3 2 2 2 2 3
Wind_Direction
340 329 360 70 84 86 87 88 87 83 81 83 87 84 80 77 74 71 69 69 70 69 69 68 67 64 64 66 66 66 66 64 61 58 57 53 55 62 65 62 54 45 53
29 357 59 75 89 90 89 89 85 83 80 79 81 81 79 75 73 71 69 68 69 69 69 67 67 65 64 65 67 67 65 62 60 53 48 43 48 60 64 63 58 55 55
77 60 69 68 87 91 88 87 86 85 82 79 77 77 76 73 70 68 67 65 66 67 67 66 65 64 64 65 65 65 64 63 57 49 40 25 30 53 62 62 57 53 54
75 65 66 65 83 86 88 88 88 87 85 82 79 76 74 71 69 67 64 62 61 62 62 62 62 63 63 65 62 62 63 60 56 48 34 17 16 43 57 59 55 51 50
66 55 59 67 78 80 84 85 86 84 84 82 80 76 73 70 68 66 63 60 59 58 58 58 60 60 60 61 61 61 61 56 53 43 28 19 14 39 56 56 53 50 48
65 54 59 69 75 75 76 79 80 80 80 79 79 77 73 70 66 62 60 58 56 55 55 55 57 58 58 58 59 59 57 53 48 33 24 15 10 33 51 53 53 50 47
65 50 54 62 68 72 73 75 74 73 72 72 72 70 70 68 65 60 58 57 56 54 53 53 53 53 54 55 56 56 52 50 49 32 18 7 11 29 46 53 52 49 45
69 55 52 57 59 59 62 65 66 66 68 68 68 67 64 63 61 56 52 51 52 52 52 51 51 52 52 50 52 53 50 47 41 29 17 5 19 32 44 48 47 45 42
63 58 49 46 52 55 56 55 59 61 62 63 64 61 57 56 56 51 45 47 47 46 47 45 46 49 50 48 48 50 51 47 38 21 16 5 16 31 39 45 47 42 35
61 53 44 40 46 46 52 56 57 57 57 56 55 52 48 46 47 45 40 41 40 38 39 40 41 45 47 45 45 46 45 39 26 16 4 7 21 29 33 35 36 34 28
61 51 45 42 44 47 56 56 56 55 52 50 48 47 45 36 34 36 35 38 40 36 35 36 38 39 41 39 42 42 40 28 16 11 3 17 25 27 30 31 28 24 20
69 58 51 50 49 54 60 59 53 55 50 47 45 39 37 35 33 35 33 34 34 33 31 32 35 36 32 25 31 36 32 26 24 11 13 19 24 27 28 25 23 19 14
90 76 62 59 59 64 64 62 54 52 46 46 43 38 36 35 32 32 30 24 23 26 23 22 24 23 24 25 26 32 31 32 23 15 17 25 24 25 24 21 16 13 10
77 58 67 69 70 74 76 71 66 62 52 50 46 42 43 38 31 28 32 24 22 18 17 17 19 20 24 28 33 35 34 37 28 18 21 26 26 23 20 19 18 16 14
94 72 53 81 86 88 86 79 76 69 65 57 52 45 51 49 34 26 27 27 22 17 16 11 12 18 21 24 30 39 34 36 39 30 15 25 28 24 22 17 14 12 8
78 66 65 69 63 76 90 85 81 74 69 65 58 47 50 53 43 31 23 22 17 10 7 10 6 11 18 26 27 29 34 34 37 29 19 19 25 23 20 18 12 7 5
112 55 75 93 71 68 97 98 86 72 72 69 59 50 48 48 44 37 29 20 8 4 6 11 8 19 29 28 24 19 25 32 34 29 22 20 16 21 20 17 12 9 5
143 90 71 79 83 66 80 94 89 78 71 63 57 49 43 41 42 44 32 19 5 9 13 13 14 22 23 20 13 13 12 22 32 37 36 30 23 17 14 21 17 15 14
157 148 112 81 91 92 76 74 76 74 67 56 50 42 35 37 39 44 36 19 14 20 18 14 19 24 19 12 6 12 9 21 31 42 45 39 29 25 19 20 19 15 15
156 151 153 118 97 103 92 76 63 61 60 58 57 44 34 31 34 38 42 25 19 26 23 19 19 17 19 1 3 7 6 19 41 41 43 40 30 27 22 19 15 7 12
162 162 172 141 121 118 105 101 92 50 33 48 56 53 44 34 30 34 32 29 25 31 20 26 26 26 21 7 15 5 6 26 47 41 34 41 30 22 20 19 17 10 360
188 197 184 173 158 148 140 134 134 121 57 48 44 43 42 39 30 28 31 32 23 25 27 32 34 31 20 12 9 1 344 351 17 21 23 35 24 16 14 14 16 15 3
208 220 211 190 165 161 139 114 97 82 54 28 24 23 25 35 40 31 26 29 24 29 32 28 29 44 29 11 21 31 26 312 322 343 6 19 10 8 355 357 9 5 359
224 222 210 200 168 159 141 141 143 138 133 341 3 12 16 30 37 39 32 27 26 30 40 27 36 27 46 19 10 19 39 148 308 316 322 352 351 347 343 351 353 350 351
199 197 206 186 159 143 145 151 149 143 133 81 47 24 13 23 28 33 38 32 29 33 39 40 39 40 45 44 18 352 358 358 234 258 292 316 324 323 331 321 330 341 346
177 181 173 172 167 151 146 149 159 159 151 132 64 10 354 15 25 32 33 33 32 32 33 37 47 54 53 57 40 17 356 322 306 280 279 299 305 306 312 302 324 337 338